| time (UTC) | temp F | wind direction | speed MPH | gust MPH | rain 1hr in | rain 24hr in | rain mn in | humidity % | barometer mb |
| 20260503202030 | 66 | 228 | 7.0 | 15.0 | 0.00 | 0.00 | 0.00 | 44 | 1004.9 |
| 20260503201547 | 66 | 186 | 7.0 | 15.0 | 0.00 | 0.00 | 0.00 | 43 | 1005.0 |
| 20260503201030 | 66 | 223 | 5.0 | 15.0 | 0.00 | 0.00 | 0.00 | 44 | 1005.1 |
| 20260503200530 | 66 | 207 | 6.0 | 15.0 | 0.00 | 0.00 | 0.00 | 44 | 1005.1 |
| 20260503200050 | 66 | 194 | 5.0 | 15.0 | 0.00 | 0.00 | 0.00 | 46 | 1005.1 |
| 20260503195531 | 66 | 240 | 5.0 | 17.0 | 0.00 | 0.00 | 0.00 | 44 | 1005.3 |
| 20260503195031 | 66 | 234 | 5.0 | 19.0 | 0.00 | 0.00 | 0.00 | 44 | 1005.3 |
| 20260503194544 | 66 | 217 | 8.0 | 19.0 | 0.00 | 0.00 | 0.00 | 42 | 1005.3 |
| 20260503194031 | 66 | 217 | 7.0 | 19.0 | 0.00 | 0.00 | 0.00 | 43 | 1005.4 |
| 20260503193531 | 65 | 159 | 6.0 | 15.0 | 0.00 | 0.00 | 0.00 | 43 | 1005.5 |
| 20260503193048 | 66 | 205 | 7.0 | 18.0 | 0.00 | 0.00 | 0.00 | 43 | 1005.5 |
| 20260503192530 | 65 | 203 | 7.0 | 18.0 | 0.00 | 0.00 | 0.00 | 44 | 1005.6 |
| 20260503192032 | 65 | 192 | 7.0 | 16.0 | 0.00 | 0.00 | 0.00 | 43 | 1005.5 |
| 20260503191540 | 65 | 214 | 7.0 | 20.0 | 0.00 | 0.00 | 0.00 | 44 | 1005.5 |
| 20260503191030 | 65 | 211 | 7.0 | 20.0 | 0.00 | 0.00 | 0.00 | 45 | 1005.7 |
| 20260503190530 | 64 | 204 | 8.0 | 19.0 | 0.00 | 0.00 | 0.00 | 44 | 1005.7 |
| 20260503190041 | 65 | 236 | 6.0 | 24.0 | 0.00 | 0.00 | 0.00 | 45 | 1005.8 |
| 20260503185531 | 64 | 163 | 11.0 | 24.0 | 0.00 | 0.00 | 0.00 | 44 | 1005.9 |
| 20260503185030 | 64 | 219 | 6.0 | 19.0 | 0.00 | 0.00 | 0.00 | 46 | 1005.8 |
| 20260503184600 | 64 | 195 | 8.0 | 19.0 | 0.00 | 0.00 | 0.00 | 44 | 1005.9 |
| 20260503184031 | 64 | 216 | 8.0 | 18.0 | 0.00 | 0.00 | 0.00 | 46 | 1005.9 |
| 20260503183531 | 63 | 154 | 8.0 | 21.0 | 0.00 | 0.00 | 0.00 | 47 | 1005.9 |
| 20260503183055 | 63 | 230 | 9.0 | 21.0 | 0.00 | 0.00 | 0.00 | 48 | 1006.2 |
| 20260503182533 | 63 | 222 | 8.0 | 21.0 | 0.00 | 0.00 | 0.00 | 49 | 1006.2 |
| 20260503182031 | 63 | 239 | 5.0 | 20.0 | 0.00 | 0.00 | 0.00 | 49 | 1006.2 |
| 20260503181541 | 62 | 171 | 9.0 | 20.0 | 0.00 | 0.00 | 0.00 | 48 | 1006.2 |
| 20260503181030 | 62 | 242 | 10.0 | 21.0 | 0.00 | 0.00 | 0.00 | 49 | 1006.3 |
| 20260503180529 | 62 | 222 | 8.0 | 21.0 | 0.00 | 0.00 | 0.00 | 50 | 1006.4 |
| 20260503180040 | 62 | 215 | 8.0 | 18.0 | 0.00 | 0.00 | 0.00 | 49 | 1006.4 |
| 20260503175530 | 61 | 188 | 6.0 | 21.0 | 0.00 | 0.00 | 0.00 | 50 | 1006.8 |
| 20260503175034 | 61 | 232 | 9.0 | 21.0 | 0.00 | 0.00 | 0.00 | 48 | 1006.9 |
| 20260503174547 | 61 | 230 | 9.0 | 21.0 | 0.00 | 0.00 | 0.00 | 48 | 1006.8 |
| 20260503174031 | 61 | 196 | 9.0 | 22.0 | 0.00 | 0.00 | 0.00 | 48 | 1006.8 |
| 20260503173531 | 61 | 246 | 9.0 | 22.0 | 0.00 | 0.00 | 0.00 | 48 | 1006.9 |
| 20260503173055 | 62 | 201 | 8.0 | 18.0 | 0.00 | 0.00 | 0.00 | 48 | 1006.9 |
| 20260503172531 | 61 | 202 | 7.0 | 22.0 | 0.00 | 0.00 | 0.00 | 48 | 1006.9 |
| 20260503172031 | 61 | 229 | 9.0 | 22.0 | 0.00 | 0.00 | 0.00 | 47 | 1007.0 |
| 20260503171542 | 61 | 191 | 8.0 | 20.0 | 0.00 | 0.00 | 0.00 | 48 | 1007.0 |
| 20260503171033 | 61 | 258 | 9.0 | 21.0 | 0.00 | 0.00 | 0.00 | 49 | 1007.1 |
| 20260503170531 | 61 | 207 | 6.0 | 21.0 | 0.00 | 0.00 | 0.00 | 53 | 1007.2 |
| 20260503150530 | 52 | 235 | 6.0 | 12.0 | 0.00 | 0.00 | 0.00 | 72 | 1008.7 |
| 20260503131030 | 52 | 198 | 4.0 | 15.0 | 0.00 | 0.00 | 0.00 | 63 | 1010.0 |
| 20260503130529 | 52 | 240 | 6.0 | 15.0 | 0.00 | 0.00 | 0.00 | 62 | 1010.0 |
| 20260503110531 | 48 | 233 | 2.0 | 9.0 | 0.00 | 0.00 | 0.00 | 56 | 1010.3 |
| 20260503081610 | 47 | 213 | 2.0 | 8.0 | 0.00 | 0.00 | 0.00 | 54 | 1011.6 |
| 20260503081029 | 47 | 206 | 3.0 | 8.0 | 0.00 | 0.00 | 0.00 | 54 | 1011.6 |
| 20260503080530 | 47 | 220 | 2.0 | 8.0 | 0.00 | 0.00 | 0.00 | 55 | 1011.6 |
| 20260503072530 | 46 | 208 | 2.0 | 8.0 | 0.00 | 0.00 | 0.00 | 54 | 1011.9 |
| 20260503072031 | 46 | 221 | 2.0 | 8.0 | 0.00 | 0.00 | 0.00 | 54 | 1011.9 |
| 20260503071540 | 46 | 192 | 3.0 | 8.0 | 0.00 | 0.00 | 0.00 | 54 | 1011.9 |
| 20260503071029 | 46 | 223 | 3.0 | 8.0 | 0.00 | 0.00 | 0.00 | 54 | 1011.9 |
| 20260503070529 | 46 | 191 | 2.0 | 8.0 | 0.00 | 0.00 | 0.00 | 54 | 1011.9 |
| 20260503055029 | 48 | 0 | 1.0 | 7.0 | 0.00 | 0.00 | 0.00 | 50 | 1012.5 |
| 20260503054547 | 48 | 211 | 2.0 | 7.0 | 0.00 | 0.00 | 0.00 | 50 | 1012.6 |
| 20260503054031 | 48 | 202 | 2.0 | 6.0 | 0.00 | 0.00 | 0.00 | 50 | 1012.7 |
| 20260503053529 | 48 | 217 | 2.0 | 5.0 | 0.00 | 0.00 | 0.00 | 50 | 1012.6 |
| 20260503053046 | 48 | 214 | 2.0 | 5.0 | 0.00 | 0.00 | 0.00 | 49 | 1012.7 |
| 20260503052530 | 48 | 217 | 1.0 | 6.0 | 0.00 | 0.00 | 0.00 | 49 | 1012.7 |
| 20260503052030 | 49 | 192 | 2.0 | 7.0 | 0.00 | 0.00 | 0.00 | 49 | 1012.7 |
| 20260503051541 | 49 | 208 | 2.0 | 7.0 | 0.00 | 0.00 | 0.00 | 48 | 1012.9 |
| 20260503051029 | 49 | 225 | 2.0 | 5.0 | 0.00 | 0.00 | 0.00 | 48 | 1012.9 |
| 20260503050531 | 49 | 205 | 2.0 | 7.0 | 0.00 | 0.00 | 0.00 | 48 | 1013.0 |
| 20260503050043 | 49 | 213 | 2.0 | 7.0 | 0.00 | 0.00 | 0.00 | 48 | 1012.9 |
| 20260503045533 | 49 | 0 | 2.0 | 7.0 | 0.00 | 0.00 | 0.00 | 48 | 1012.9 |
| 20260503045028 | 49 | 0 | 1.0 | 5.0 | 0.00 | 0.00 | 0.00 | 48 | 1013.0 |
| 20260503044543 | 49 | 217 | 2.0 | 7.0 | 0.00 | 0.00 | 0.00 | 48 | 1013.0 |
| 20260503044029 | 49 | 202 | 2.0 | 7.0 | 0.00 | 0.00 | 0.00 | 48 | 1013.0 |
| 20260503043529 | 49 | 202 | 2.0 | 7.0 | 0.00 | 0.00 | 0.00 | 48 | 1013.1 |
| 20260503043043 | 49 | 222 | 2.0 | 7.0 | 0.00 | 0.00 | 0.00 | 48 | 1013.1 |
| 20260503042529 | 49 | 0 | 2.0 | 7.0 | 0.00 | 0.00 | 0.00 | 48 | 1013.1 |
| 20260503042029 | 48 | 213 | 2.0 | 6.0 | 0.00 | 0.00 | 0.00 | 48 | 1013.1 |
| 20260503041548 | 48 | 209 | 2.0 | 5.0 | 0.00 | 0.00 | 0.00 | 48 | 1013.2 |
| 20260503041028 | 48 | 171 | 1.0 | 5.0 | 0.00 | 0.00 | 0.00 | 48 | 1013.2 |
| 20260503040529 | 48 | 202 | 2.0 | 6.0 | 0.00 | 0.00 | 0.00 | 48 | 1013.4 |
| 20260503040048 | 48 | 213 | 1.0 | 6.0 | 0.00 | 0.00 | 0.00 | 48 | 1013.4 |
| 20260503035530 | 48 | 224 | 2.0 | 6.0 | 0.00 | 0.00 | 0.00 | 48 | 1013.5 |
| 20260503035029 | 48 | 236 | 2.0 | 6.0 | 0.00 | 0.00 | 0.00 | 48 | 1013.6 |
| 20260503034548 | 48 | 202 | 1.0 | 6.0 | 0.00 | 0.00 | 0.00 | 48 | 1013.4 |
| 20260503034030 | 48 | 221 | 2.0 | 6.0 | 0.00 | 0.00 | 0.00 | 47 | 1013.6 |
| 20260503033528 | 48 | 214 | 2.0 | 5.0 | 0.00 | 0.00 | 0.00 | 47 | 1013.5 |
| 20260503033058 | 48 | 237 | 1.0 | 5.0 | 0.00 | 0.00 | 0.00 | 47 | 1013.6 |
| 20260503032529 | 48 | 360 | 1.0 | 5.0 | 0.00 | 0.00 | 0.00 | 48 | 1013.6 |
| 20260503032030 | 49 | 202 | 1.0 | 5.0 | 0.00 | 0.00 | 0.00 | 48 | 1013.6 |
| 20260503031556 | 49 | 186 | 1.0 | 5.0 | 0.00 | 0.00 | 0.00 | 48 | 1013.7 |
| 20260503031031 | 49 | 200 | 1.0 | 4.0 | 0.00 | 0.00 | 0.00 | 47 | 1013.6 |
| 20260503030530 | 49 | 201 | 0.0 | 3.0 | 0.00 | 0.00 | 0.00 | 48 | 1013.7 |
| 20260503030049 | 49 | 186 | 1.0 | 3.0 | 0.00 | 0.00 | 0.00 | 47 | 1013.8 |
| 20260503025529 | 49 | 221 | 1.0 | 4.0 | 0.00 | 0.00 | 0.00 | 47 | 1013.8 |
| 20260503025029 | 49 | 200 | 1.0 | 4.0 | 0.00 | 0.00 | 0.00 | 47 | 1013.9 |
| 20260503024556 | 49 | 192 | 1.0 | 3.0 | 0.00 | 0.00 | 0.00 | 47 | 1013.8 |
| 20260503024032 | 49 | 207 | 1.0 | 3.0 | 0.00 | 0.00 | 0.00 | 47 | 1013.8 |
| 20260503023528 | 50 | 222 | 1.0 | 3.0 | 0.00 | 0.00 | 0.00 | 48 | 1013.8 |
| 20260503023042 | 50 | 199 | 0.0 | 3.0 | 0.00 | 0.00 | 0.00 | 47 | 1013.8 |
| 20260503022529 | 50 | 205 | 0.0 | 3.0 | 0.00 | 0.00 | 0.00 | 47 | 1013.8 |
| 20260503022032 | 50 | 209 | 1.0 | 3.0 | 0.00 | 0.00 | 0.00 | 46 | 1013.8 |
| 20260503021551 | 50 | 229 | 0.0 | 3.0 | 0.00 | 0.00 | 0.00 | 46 | 1013.8 |
| 20260503021029 | 51 | 0 | 0.0 | 2.0 | 0.00 | 0.00 | 0.00 | 45 | 1013.8 |
| 20260503020530 | 51 | 0 | 0.0 | 3.0 | 0.00 | 0.00 | 0.00 | 44 | 1013.6 |
| 20260503020046 | 51 | 211 | 1.0 | 3.0 | 0.00 | 0.00 | 0.00 | 44 | 1013.7 |
| 20260503015530 | 52 | 220 | 1.0 | 3.0 | 0.00 | 0.00 | 0.00 | 43 | 1013.6 |
| 20260503015029 | 52 | 195 | 0.0 | 3.0 | 0.00 | 0.00 | 0.00 | 43 | 1013.5 |
| 20260503014546 | 52 | 0 | 1.0 | 4.0 | 0.00 | 0.00 | 0.00 | 42 | 1013.6 |
| 20260503014029 | 52 | 218 | 1.0 | 4.0 | 0.00 | 0.00 | 0.00 | 41 | 1013.6 |
| 20260503013529 | 53 | 207 | 1.0 | 4.0 | 0.00 | 0.00 | 0.00 | 41 | 1013.5 |
| 20260503013047 | 53 | 213 | 1.0 | 3.0 | 0.00 | 0.00 | 0.00 | 40 | 1013.6 |
| 20260503012529 | 53 | 223 | 1.0 | 3.0 | 0.00 | 0.00 | 0.00 | 40 | 1013.4 |
| 20260503012031 | 53 | 0 | 0.0 | 3.0 | 0.00 | 0.00 | 0.00 | 40 | 1013.5 |
| 20260503011546 | 54 | 218 | 1.0 | 2.0 | 0.00 | 0.00 | 0.00 | 39 | 1013.4 |
| 20260503011031 | 54 | 209 | 0.0 | 3.0 | 0.00 | 0.00 | 0.00 | 39 | 1013.4 |
| 20260503010531 | 54 | 0 | 0.0 | 3.0 | 0.00 | 0.00 | 0.00 | 38 | 1013.4 |
| 20260503010048 | 54 | 0 | 1.0 | 4.0 | 0.00 | 0.00 | 0.00 | 39 | 1013.5 |
| 20260503005531 | 55 | 0 | 0.0 | 4.0 | 0.00 | 0.00 | 0.00 | 38 | 1013.5 |
| 20260503005032 | 55 | 207 | 0.0 | 4.0 | 0.00 | 0.00 | 0.00 | 38 | 1013.5 |
| 20260503004547 | 55 | 215 | 1.0 | 4.0 | 0.00 | 0.00 | 0.00 | 37 | 1013.4 |
| 20260503004030 | 56 | 219 | 0.0 | 6.0 | 0.00 | 0.00 | 0.00 | 37 | 1013.4 |
| 20260503003530 | 56 | 255 | 0.0 | 6.0 | 0.00 | 0.00 | 0.00 | 36 | 1013.4 |
| 20260503003059 | 56 | 175 | 1.0 | 6.0 | 0.00 | 0.00 | 0.00 | 36 | 1013.4 |
| 20260503002530 | 56 | 247 | 2.0 | 6.0 | 0.00 | 0.00 | 0.00 | 35 | 1013.5 |
| 20260503002033 | 57 | 233 | 2.0 | 7.0 | 0.00 | 0.00 | 0.00 | 35 | 1013.6 |
| 20260503001550 | 57 | 207 | 2.0 | 10.0 | 0.00 | 0.00 | 0.00 | 34 | 1013.5 |
| 20260503001032 | 57 | 246 | 2.0 | 10.0 | 0.00 | 0.00 | 0.00 | 35 | 1013.6 |
| 20260503000533 | 57 | 263 | 3.0 | 11.0 | 0.00 | 0.00 | 0.00 | 35 | 1013.6 |
| 20260503000051 | 57 | 240 | 3.0 | 11.0 | 0.00 | 0.00 | 0.00 | 35 | 1013.7 |
| 20260502235530 | 57 | 221 | 2.0 | 7.0 | 0.00 | 0.00 | 0.00 | 35 | 1013.8 |
| 20260502235030 | 57 | 234 | 2.0 | 7.0 | 0.00 | 0.00 | 0.00 | 34 | 1013.8 |
| 20260502234541 | 56 | 238 | 1.0 | 9.0 | 0.00 | 0.00 | 0.00 | 37 | 1013.9 |
| 20260502234028 | 57 | 250 | 1.0 | 9.0 | 0.00 | 0.00 | 0.00 | 36 | 1014.0 |
| 20260502233531 | 57 | 0 | 2.0 | 9.0 | 0.00 | 0.00 | 0.00 | 34 | 1014.0 |
| 20260502233058 | 57 | 249 | 1.0 | 10.0 | 0.00 | 0.00 | 0.00 | 35 | 1014.0 |
| 20260502232531 | 57 | 258 | 3.0 | 10.0 | 0.00 | 0.00 | 0.00 | 34 | 1014.0 |
| 20260502232031 | 57 | 207 | 2.0 | 8.0 | 0.00 | 0.00 | 0.00 | 34 | 1014.0 |
| 20260502231600 | 57 | 227 | 2.0 | 11.0 | 0.00 | 0.00 | 0.00 | 33 | 1014.1 |
| 20260502231031 | 57 | 265 | 4.0 | 11.0 | 0.00 | 0.00 | 0.00 | 34 | 1014.0 |
| 20260502230531 | 57 | 248 | 4.0 | 11.0 | 0.00 | 0.00 | 0.00 | 33 | 1014.1 |
| 20260502230044 | 58 | 262 | 3.0 | 9.0 | 0.00 | 0.00 | 0.00 | 34 | 1014.2 |
| 20260502225528 | 58 | 250 | 2.0 | 9.0 | 0.00 | 0.00 | 0.00 | 35 | 1014.2 |
| 20260502225030 | 58 | 265 | 2.0 | 12.0 | 0.00 | 0.00 | 0.00 | 35 | 1014.3 |
| 20260502224541 | 57 | 270 | 3.0 | 12.0 | 0.00 | 0.00 | 0.00 | 34 | 1014.2 |
| 20260502224031 | 57 | 284 | 2.0 | 9.0 | 0.00 | 0.00 | 0.00 | 35 | 1014.3 |
| 20260502223531 | 58 | 259 | 4.0 | 12.0 | 0.00 | 0.00 | 0.00 | 33 | 1014.3 |
| 20260502223047 | 58 | 250 | 5.0 | 12.0 | 0.00 | 0.00 | 0.00 | 34 | 1014.3 |
| 20260502222531 | 58 | 264 | 4.0 | 12.0 | 0.00 | 0.00 | 0.00 | 34 | 1014.3 |
| 20260502222031 | 57 | 267 | 4.0 | 12.0 | 0.00 | 0.00 | 0.00 | 33 | 1014.3 |
| 20260502221559 | 57 | 257 | 3.0 | 9.0 | 0.00 | 0.00 | 0.00 | 34 | 1014.3 |
| 20260502221033 | 56 | 255 | 4.0 | 9.0 | 0.00 | 0.00 | 0.00 | 34 | 1014.4 |
| 20260502220529 | 56 | 242 | 3.0 | 11.0 | 0.00 | 0.00 | 0.00 | 34 | 1014.4 |
| 20260502220045 | 57 | 232 | 5.0 | 13.0 | 0.00 | 0.00 | 0.00 | 34 | 1014.6 |
| 20260502215531 | 57 | 278 | 3.0 | 13.0 | 0.00 | 0.00 | 0.00 | 34 | 1014.5 |
| 20260502215029 | 57 | 281 | 4.0 | 11.0 | 0.00 | 0.00 | 0.00 | 34 | 1014.6 |
| 20260502214542 | 57 | 189 | 4.0 | 14.0 | 0.00 | 0.00 | 0.00 | 34 | 1014.6 |
| 20260502214028 | 57 | 284 | 5.0 | 14.0 | 0.00 | 0.00 | 0.00 | 33 | 1014.7 |
| 20260502213528 | 57 | 272 | 6.0 | 11.0 | 0.00 | 0.00 | 0.00 | 32 | 1014.7 |
| 20260502213050 | 57 | 234 | 1.0 | 11.0 | 0.00 | 0.00 | 0.00 | 35 | 1014.8 |
| 20260502212528 | 57 | 280 | 3.0 | 11.0 | 0.00 | 0.00 | 0.00 | 34 | 1014.7 |
| 20260502212028 | 56 | 269 | 2.0 | 11.0 | 0.00 | 0.00 | 0.00 | 35 | 1014.8 |
| 20260502211547 | 56 | 248 | 3.0 | 11.0 | 0.00 | 0.00 | 0.00 | 33 | 1014.7 |
| 20260502211032 | 57 | 229 | 3.0 | 9.0 | 0.00 | 0.00 | 0.00 | 35 | 1014.8 |
| 20260502210529 | 57 | 207 | 3.0 | 12.0 | 0.00 | 0.00 | 0.00 | 34 | 1014.9 |
| 20260502210045 | 56 | 242 | 5.0 | 12.0 | 0.00 | 0.00 | 0.00 | 35 | 1014.9 |
| 20260502205531 | 56 | 274 | 5.0 | 12.0 | 0.00 | 0.00 | 0.00 | 34 | 1015.0 |
| 20260502205031 | 56 | 263 | 5.0 | 12.0 | 0.00 | 0.00 | 0.00 | 36 | 1015.1 |
| 20260502204549 | 56 | 272 | 4.0 | 9.0 | 0.00 | 0.00 | 0.00 | 37 | 1015.0 |
| 20260502204029 | 56 | 262 | 4.0 | 9.0 | 0.00 | 0.00 | 0.00 | 35 | 1015.1 |
| 20260502203531 | 56 | 209 | 2.0 | 10.0 | 0.00 | 0.00 | 0.00 | 35 | 1015.2 |
| 20260502203044 | 56 | 220 | 3.0 | 10.0 | 0.00 | 0.00 | 0.00 | 35 | 1015.3 |
| 20260502202531 | 56 | 223 | 3.0 | 10.0 | 0.00 | 0.00 | 0.00 | 37 | 1015.4 |